Date String (YYYY-MM-DD hh:mm:ss) UTC,Instrument flags,absolute air pressure of the measurement (hPa),sample flow rate (lpm),inlet stack bypass flow (lpm),air temperature of the measurement (°C),ambient temperature measured by the external sensor (°C),aerosol sample conditioner tube jacket temperature (°C),OPC LED temperature (°C),internal box temperature (°C),relative humidity of the measurement (%),span deviation,mass concentration of particles derived from Lorenz-Mie calculation of OPC scattering (μg/m³),mass concentration of particles derived from Lorenz-Mie calculation of OPC scattering (μg/m³),mass concentration of particles derived from Lorenz-Mie calculation of OPC scattering (μg/m³)
DateTimeUTC,F1_M11,P_M11,Q1_M11,Q2_M11,T1_M11,T2_M11,T3_M11,T4_M11,T5_M11,U1_M11,ZSPAN_M11,X0_M11,X2_M11,X1_M11
2023-11-13 18:00:00,SystemResetWarning,0835.5,5.00,000.00,026.1,025.4,000.0,034.2,027.6,9.7,0000.0,0011.05,0004.49,0003.85
2023-11-13 18:01:00,SystemResetWarning,0835.5,5.00,000.00,026.1,025.4,000.0,034.2,027.6,9.7,0000.0,0010.88,0004.49,0003.85
2023-11-13 18:02:00,SystemResetWarning,0835.5,5.00,000.00,026.1,025.4,000.0,034.2,027.6,9.6,0000.0,0011.04,0004.49,0003.88
2023-11-13 18:03:00,SystemResetWarning,0835.5,5.00,000.00,026.1,025.4,000.0,034.3,027.6,9.6,0000.0,0011.17,0004.53,0003.89
2023-11-13 18:04:00,SystemResetWarning,0835.5,5.00,000.00,026.1,025.4,000.0,034.3,027.7,9.6,0000.0,0011.23,0004.57,0003.92
2023-11-13 18:05:00,SystemResetWarning,0835.5,5.00,000.00,026.1,025.4,000.0,034.3,027.7,9.7,0000.0,0011.49,0004.58,0003.93
2023-11-13 18:06:00,SystemResetWarning,0835.5,5.00,000.00,026.2,025.4,000.0,034.3,027.7,9.5,0000.0,0011.98,0004.57,0003.94
2023-11-13 18:07:00,SystemResetWarning,0835.4,5.00,000.00,026.2,025.4,000.0,034.3,027.7,9.6,0000.0,0012.30,0004.60,0003.94
2023-11-13 18:08:00,SystemResetWarning,0835.3,5.00,000.00,026.2,025.4,000.0,034.3,027.7,9.6,0000.0,0012.78,0004.65,0003.95
2023-11-13 18:09:00,SystemResetWarning,0835.3,5.00,000.00,026.2,025.5,000.0,034.4,027.8,9.7,0000.0,0013.31,0004.70,0003.95
2023-11-13 18:10:00,SystemResetWarning,0835.3,5.00,000.00,026.2,025.5,000.0,034.4,027.8,9.7,0000.0,0013.45,0004.72,0003.97
2023-11-13 18:11:00,SystemResetWarning,0835.3,4.99,000.00,026.2,025.5,000.0,034.4,027.8,9.5,0000.0,0012.85,0004.75,0003.97
2023-11-13 18:12:00,SystemResetWarning,0835.3,5.00,000.00,026.3,025.5,000.0,034.4,027.8,9.6,0000.0,0012.57,0004.77,0003.97
2023-11-13 18:13:00,SystemResetWarning,0835.4,5.00,000.00,026.3,025.5,000.0,034.4,027.8,9.5,0000.0,0012.25,0004.77,0003.96
2023-11-13 18:14:00,SystemResetWarning,0835.3,5.00,000.00,026.3,025.5,000.0,034.4,027.8,9.5,0000.0,0011.91,0004.74,0003.96
2023-11-13 18:15:00,SystemResetWarning,0835.2,5.00,000.00,026.3,025.6,000.0,034.5,027.8,9.6,0000.0,0012.05,0004.72,0003.95
2023-11-13 18:16:00,SystemResetWarning,0835.2,5.00,000.00,026.3,025.6,000.0,034.5,027.9,9.5,0000.0,0012.04,0004.73,0003.95
2023-11-13 18:17:00,SystemResetWarning,0835.2,5.00,000.00,026.3,025.6,000.0,034.5,027.9,9.6,0000.0,0012.40,0004.76,0003.96
2023-11-13 18:18:00,SystemResetWarning,0835.3,5.00,000.00,026.4,025.6,000.0,034.5,027.9,9.5,0000.0,0011.46,0004.75,0003.96
2023-11-13 18:19:00,SystemResetWarning,0835.2,4.99,000.00,026.4,025.6,000.0,034.5,027.9,9.5,0000.0,0010.66,0004.70,0003.95
2023-11-13 18:20:00,SystemResetWarning,0835.2,4.99,000.00,026.4,025.6,000.0,034.5,027.9,9.5,0000.0,0009.92,0004.64,0003.94
2023-11-13 18:21:00,SystemResetWarning,0835.3,5.00,000.00,026.4,025.7,000.0,034.6,028.0,9.6,0000.0,0009.81,0004.61,0003.94
2023-11-13 18:22:00,SystemResetWarning,0835.3,5.00,000.00,026.4,025.7,000.0,034.6,028.0,9.5,0000.0,0010.13,0004.61,0003.94
2023-11-13 18:23:00,SystemResetWarning,0835.3,5.01,000.00,026.4,025.7,000.0,034.6,028.0,9.5,0000.0,0010.37,0004.61,0003.95
2023-11-13 18:24:00,SystemResetWarning,0835.3,5.01,000.00,026.4,025.7,000.0,034.6,028.0,9.6,0000.0,0010.41,0004.63,0003.95
2023-11-13 18:25:00,SystemResetWarning,0835.3,5.01,000.00,026.5,025.7,000.0,034.6,028.0,9.7,0000.0,0010.62,0004.72,0003.96
2023-11-13 18:26:00,SystemResetWarning,0835.2,4.99,000.00,026.5,025.8,000.0,034.6,028.0,9.6,0000.0,0010.66,0004.76,0003.97
2023-11-13 18:27:00,SystemResetWarning,0835.2,4.99,000.00,026.5,025.8,000.0,034.7,028.0,9.5,0000.0,0011.15,0004.76,0003.97
2023-11-13 18:28:00,SystemResetWarning,0835.1,5.00,000.00,026.5,025.8,000.0,034.7,028.0,9.6,0000.0,0011.22,0004.74,0003.97
2023-11-13 18:29:00,SystemResetWarning,0835.1,5.00,000.00,026.5,025.8,000.0,034.7,028.1,9.5,0000.0,0011.50,0004.70,0003.97
2023-11-13 18:30:00,SystemResetWarning,0835.1,5.00,000.00,026.5,025.8,000.0,034.7,028.1,9.5,0000.0,0011.80,0004.74,0003.97
2023-11-13 18:31:00,SystemResetWarning,0835.1,5.00,000.00,026.6,025.9,000.0,034.7,028.1,9.5,0000.0,0012.07,0004.82,0003.99
2023-11-13 18:32:00,SystemResetWarning,0835.1,5.00,000.00,026.6,025.9,000.0,034.7,028.1,9.5,0000.0,0012.39,0004.83,0003.99
2023-11-13 18:33:00,SystemResetWarning,0835.1,5.00,000.00,026.6,025.9,000.0,034.8,028.2,9.6,0000.0,0012.35,0004.84,0003.98
2023-11-13 18:34:00,SystemResetWarning,0835.1,5.00,000.00,026.6,025.9,000.0,034.8,028.2,9.5,0000.0,0011.91,0004.86,0003.97
2023-11-13 18:35:00,SystemResetWarning,0835.0,5.00,000.00,026.7,025.9,000.0,034.8,028.2,9.5,0000.0,0012.00,0004.86,0003.96
2023-11-13 18:36:00,SystemResetWarning,0835.0,5.00,000.00,026.7,026.0,000.0,034.8,028.2,9.5,0000.0,0012.10,0004.81,0003.96
2023-11-13 18:37:00,SystemResetWarning,0834.9,5.00,000.00,026.7,026.0,000.0,034.8,028.2,9.6,0000.0,0012.06,0004.81,0003.95
2023-11-13 18:38:00,SystemResetWarning,0835.3,5.00,000.00,026.7,026.0,000.0,034.8,028.2,9.6,0000.0,0011.78,0004.82,0003.94
2023-11-13 18:39:00,SystemResetWarning,0835.1,5.00,000.00,026.7,026.0,000.0,034.9,028.3,9.6,0000.0,0010.88,0004.81,0003.93
2023-11-13 18:40:00,SystemResetWarning,0835.3,5.00,000.00,026.7,026.1,000.0,034.9,028.3,9.6,0000.0,0010.65,0004.86,0003.93
2023-11-13 18:41:00,SystemResetWarning,0834.8,5.00,000.00,026.8,026.1,000.0,034.9,028.3,9.5,0000.0,0010.50,0004.84,0003.92
2023-11-13 18:42:00,SystemResetWarning,0834.8,4.99,000.00,026.8,026.1,000.0,034.9,028.3,9.5,0000.0,0010.37,0004.80,0003.91
2023-11-13 18:43:00,SystemResetWarning,0834.9,4.99,000.00,026.8,026.1,000.0,034.9,028.4,9.5,0000.0,0010.17,0004.78,0003.91
2023-11-13 18:44:00,SystemResetWarning,0834.8,5.00,000.00,026.8,026.2,000.0,035.0,028.4,9.4,0000.0,0010.83,0004.76,0003.90
2023-11-13 18:45:00,SystemResetWarning,0834.8,5.01,000.00,026.9,026.2,000.0,035.0,028.4,9.2,0000.0,0012.09,0004.72,0003.89
2023-11-13 18:46:00,SystemResetWarning,0834.7,5.01,000.00,026.9,026.2,000.0,035.0,028.4,9.0,0000.0,0012.68,0004.70,0003.89
2023-11-13 18:47:00,SystemResetWarning,0834.8,5.01,000.00,026.9,026.2,000.0,035.0,028.4,9.0,0000.0,0012.38,0004.68,0003.88
2023-11-13 18:48:00,SystemResetWarning,0835.2,5.00,000.00,026.9,026.3,000.0,035.0,028.5,8.9,0000.0,0012.15,0004.64,0003.88
2023-11-13 18:49:00,SystemResetWarning,0834.9,5.00,000.00,026.9,026.3,000.0,035.1,028.5,8.9,0000.0,0012.01,0004.59,0003.86
2023-11-13 18:50:00,SystemResetWarning,0834.7,5.00,000.00,027.0,026.3,000.0,035.1,028.5,8.9,0000.0,0011.72,0004.56,0003.85
2023-11-13 18:51:00,SystemResetWarning,0834.6,5.00,000.00,027.0,026.3,000.0,035.1,028.5,8.9,0000.0,0011.50,0004.47,0003.81
2023-11-13 18:52:00,SystemResetWarning,0834.6,5.00,000.00,027.0,026.4,000.0,035.1,028.6,9.1,0000.0,0011.38,0004.42,0003.78
2023-11-13 18:53:00,SystemResetWarning,0834.6,5.00,000.00,027.0,026.4,000.0,035.1,028.6,9.3,0000.0,0011.93,0004.37,0003.74
2023-11-13 18:54:00,SystemResetWarning,0834.9,5.00,000.00,027.1,026.4,000.0,035.2,028.6,9.3,0000.0,0011.72,0004.32,0003.71
2023-11-13 18:55:00,SystemResetWarning,0834.9,5.00,000.00,027.1,026.4,000.0,035.2,028.6,9.3,0000.0,0011.24,0004.28,0003.68
2023-11-13 18:56:00,SystemResetWarning,0834.8,4.99,000.00,027.1,026.4,000.0,035.2,028.6,9.4,0000.0,0010.29,0004.23,0003.64
2023-11-13 18:57:00,SystemResetWarning,0834.5,5.00,000.00,027.1,026.5,000.0,035.2,028.7,9.3,0000.0,0009.50,0004.19,0003.61
2023-11-13 18:58:00,SystemResetWarning,0834.5,5.00,000.00,027.1,026.5,000.0,035.2,028.7,9.1,0000.0,0009.38,0004.15,0003.58
2023-11-13 18:59:00,SystemResetWarning,0834.5,5.00,000.00,027.2,026.5,000.0,035.3,028.7,9.0,0000.0,0009.49,0004.16,0003.58
